Regional Weather Roundup
Issued by NWS

Home | Current Version | Previous Version | Graphics & Text | Print | Product List | Glossary On
Versions: 1 2 3 4 5 6 7 8 9 10 11 12 13 14 15 16 17 18 19 20 21 22 23 24 25 26 27 28 29 30 31 32 33 34 35 36 37 38 39 40 41 42 43 44 45 46 47 48 49 50
000
ASUS43 KMKX 231800
RWRWI

WISCONSIN REGIONAL WEATHER ROUNDUP
NATIONAL WEATHER SERVICE MILWAUKEE/SULLIVAN WI
100 PM CDT SAT JUL 23 2016

NOTE: "FAIR" INDICATES FEW OR NO CLOUDS BELOW 12,000 FEET WITH NO
SIGNIFICANT WEATHER AND/OR OBSTRUCTIONS TO VISIBILITY.

WIZ001-002-006>008-014>016-023>028-231900-
NORTHWEST WISCONSIN

CITY           SKY/WX    TMP DP  RH WIND       PRES   REMARKS
SUPERIOR ARPT  CLOUDY    68  61  79 NE14      29.93F
ASHLAND        CLOUDY    75  67  76 N7        29.94F
6HR MIN TEMP:  63; 6HR MAX TEMP:  83;

HAYWARD        CLOUDY    80  68  66 S13       29.95F HX  83
6HR MIN TEMP:  68; 6HR MAX TEMP:  82;

SIREN          NOT AVBL
CUMBERLAND     CLOUDY    73  64  73 S14G21    29.95F
RICE LAKE      CLOUDY    76  67  76 SE6       29.95F
CHETEK         CLOUDY    75  68  77 S7        29.95F
LADYSMITH      CLOUDY    80  69  70 S6        30.00F HX  82
EAU CLAIRE     NOT AVBL
MENOMONIE      RAIN      71  70  96 CALM      29.96F
NEW RICHMOND   RAIN      72  70  95 S13       29.96R
OSCEOLA        RAIN      72  67  83 S8        29.97R
$$

WIZ003>005-009-010-017-018-231900-
NORTH CENTRAL WISCONSIN

CITY           SKY/WX    TMP DP  RH WIND       PRES   REMARKS
MANITOWISH WTR PTSUNNY   82  62  50 SE5       30.01F HX  83
ARBOR VITAE    CLOUDY    83  62  48 S9        30.02F HX  83
WOODRUFF       CLOUDY    83  62  48 S9        30.02F HX  83
RHINELANDER    CLOUDY    84  63  49 SE6       30.02F HX  85
6HR MIN TEMP:  67; 6HR MAX TEMP:  84;

EAGLE RIVER    CLOUDY    83  55  38 CALM      30.02F HX  82
LAND O LAKES   CLOUDY    85  57  37 SE6       30.04F HX  84
PHILLIPS       CLOUDY    82  70  67 S8        29.99F HX  85
TOMAHAWK       CLOUDY    82  67  60 CALM      30.02F HX  84
MEDFORD        CLOUDY    78  71  79 SE6       30.00F HX  80
MERRILL        CLOUDY    83  67  57 SE6       30.01F HX  86
$$

WIZ029-030-035-036-043>047-231900-
CENTRAL WISCONSIN

CITY           SKY/WX    TMP DP  RH WIND       PRES   REMARKS
WAUSAU         CLOUDY    83  66  56 S10       29.98F HX  85
6HR MIN TEMP:  69; 6HR MAX TEMP:  85;

MOSINEE        SUNNY     81  70  69 S6        30.01F HX  84
MARSHFIELD     CLOUDY    79  70  74 S8        29.99F HX  82
6HR MIN TEMP:  70; 6HR MAX TEMP:  85;

STEVENS POINT  CLOUDY    82  66  59 S3        30.01S HX  84
WAUPACA        CLOUDY    86  66  50 CALM      30.00S HX  88
WAUTOMA        CLOUDY    83  74  74 SW6       30.00S HX  89
6HR MIN TEMP:  67; 6HR MAX TEMP:  84;

WISC RAPIDS    CLOUDY    82  69  64 S5        30.01S HX  85
6HR MIN TEMP:  71; 6HR MAX TEMP:  86;

CAMP DOUGLAS   LGT RAIN  77  73  88 W5        30.00R
$$

WIZ011>013-019>022-031-037>040-048>050-231900-
NORTHEAST WISCONSIN

CITY           SKY/WX    TMP DP  RH WIND       PRES   REMARKS
ANTIGO         CLOUDY    82  64  55 CALM      30.03F HX  83
SHAWANO        CLOUDY    87  64  45 SE3       30.00S HX  88
OCONTO         CLOUDY    82  62  49 E5        29.99F HX  83
STURGEON BAY   MOSUNNY   83  61  47 E7        30.01F HX  83
6HR MIN TEMP:  71; 6HR MAX TEMP:  86;

GREEN BAY      CLOUDY    85  71  63 S6        29.99R HX  90
6HR MIN TEMP:  72; 6HR MAX TEMP:  88;

MANITOWOC      NOT AVBL
APPLETON       PTSUNNY   84  61  45 SE3       29.99S HX  84
CLINTONVILLE   CLOUDY    84  64  51 CALM      29.99F HX  86
OSHKOSH        CLOUDY    86  71  60 S3        29.99S HX  91
6HR MIN TEMP:  75; 6HR MAX TEMP:  86;

$$

WIZ032>034-041-042-053>061-231900-
SOUTHWEST WISCONSIN

CITY           SKY/WX    TMP DP  RH WIND       PRES   REMARKS
LA CROSSE      TSTM      73  71  93 SE6       29.99F FOG
6HR MIN TEMP:  72; 6HR MAX TEMP:  79; 6HR PCP:  0.83;

SPARTA         CLOUDY    72  70  92 W5        30.03R
VIROQUA        CLOUDY    71  71 100 SW13G21   30.07R
BOSCOBEL       TSTM      72  71  97 CALM      30.01S FOG
6HR MIN TEMP:  71; 6HR MAX TEMP:  78; 6HR PCP:  1.41;

PRAIRIE DU CHI LGT RAIN  68  67  96 NW6       30.00F
PLATTEVILLE    CLOUDY    71  71 100 N10G18    30.02R
$$

WIZ056-057-062-063-064-067-068-231900-
SOUTH CENTRAL WISCONSIN

CITY           SKY/WX    TMP DP  RH WIND       PRES   REMARKS
REEDSBURG      RAIN     N/A N/A N/A CALM      29.99F
BARABOO/DELLS  TSTM      78  76  93 W5        30.00F HX  81
LONE ROCK      TSTM      72  70  93 W8        30.03R FOG
MINERAL POINT  RAIN      72  72 100 NW14G21   30.03S
MADISON        TSTM      83  78  85 N5        29.99R HX  93
6HR MIN TEMP:  76; 6HR MAX TEMP:  84; 6HR PCP: TRACE;

MIDDLETON      CLOUDY    81  80  95 CALM      30.00S HX  91
WATERTOWN      CLOUDY    82  80  93 CALM      30.00R HX  93
MONROE         CLOUDY    81  77  89 CALM      30.00R HX  88
JANESVILLE     PTSUNNY   86  75  70 CALM      29.98S HX  95
$$

WIZ051-052-058>065-066-070>072-231900-
SOUTHEAST WISCONSIN

CITY           SKY/WX    TMP DP  RH WIND       PRES   REMARKS
MILWAUKEE      CLOUDY    86  75  69 SE8       29.99S HX  95
6HR MIN TEMP:  80; 6HR MAX TEMP:  89;

WAUKESHA       MOSUNNY   84  68  58 SW3       30.01S HX  87
MILWAUKEE/TIMM SUNNY     84  70  61 SE6       30.01R HX  88
RACINE         CLOUDY    85  76  74 SE7       30.01S HX  94
6HR MIN TEMP:  78; 6HR MAX TEMP:  87;

BURLINGTON     CLOUDY    86  76  70 SW5       29.99S HX  96
KENOSHA        CLOUDY    86  76  71 E9        29.99S HX  96
6HR MIN TEMP:  77; 6HR MAX TEMP:  88;

FOND DU LAC    CLOUDY    87  74  64 W7        29.99R HX  95
6HR MIN TEMP:  71; 6HR MAX TEMP:  89;

SHEBOYGAN      CLOUDY    81  66  60 E7        30.00S HX  83
6HR MIN TEMP:  73; 6HR MAX TEMP:  85;

WEST BEND      CLOUDY    86  66  51 SE5       30.00R HX  88
JUNEAU         CLOUDY    80  77  90 W3        30.02R HX  87
$$

LSZ147-162-231900-
LAKE SUPERIOR

STATION/POSITION TIME  TEMP    WIND        PRES    WAVE
                       AIR SEA DIR/SP/G            HT/PER
                 (UTC) (F)     (DEG/KT/KT) (MB)    (FT/S)
W MID LAKE BUOY  1650   61 59   70/ 12/ 12 1013.9F   1
DEVILS ISLAND    1700   65      90/ 12/ 14 1014.9R
SAXON HARBOR     1740   71     360/  2/  5 1014.2F
$$

LMZ867-665-643>646-231900-
LAKE MICHIGAN

STATION/POSITION TIME  TEMP    WIND        PRES    WAVE
                       AIR SEA DIR/SP/G            HT/PER
                 (UTC) (F)     (DEG/KT/KT) (MB)    (FT/S)
CHAMBERS ISLAND  1700   78     340/  2/  4 1015.9R
S GREEN BAY BUOY 1730   75 75  360/  6/  8   N/A
N MID LAKE BUOY  1650   70 70  110/  6/  8 1014.7R   1
NORTHPORT PIER   1700   74     130/  4/  5 1015.9R
KEWAUNEE LAKESHO 1700   76      20/  3/  6 1015.6R
SHEBOYGAN LAKESH 1700   70      20/  7/  7 1016.0R
PORT WASHINGTON  1740   72      50/  3/  4 1015.9S
MILWAUKEE LAKESH 1710   73      20/  2/  2   N/A
S MID LAKE BUOY  1650   77 78  150/  4/  6 1015.1S   0
KENOSHA   LAKESH 1700   79     130/  4/  5 1015.2R
$$

TC  - TEMPERATURE IN CELSIUS
VSB - VISIBILITY IN STATUTE MILES
WCI - WIND CHILL INDEX
HX  - HEAT INDEX





USA.gov is the U.S. government's official web portal to all federal, state and local government web resources and services.